Total_Precipitation_Accumulation
0.05 0.16 0.36 0.61 1.12 1.43 1.21 0.75 0.48 0.28 0.33 0.42 0.53 0.61 0.59 0.68 0.95 1.49 1.22 0.76 0.54 0.66 0.66 0.75 0.93 0.88 0.91 0.93 1.05 1.21 1.36 1.45 1.47 1.32 1.36 1.55 1.78 1.96 2.03 2.04 2.06 2.26 2.65 2.82 2.69 2.52 2.45 2.34 2.25
0.10 0.30 0.52 0.86 1.26 1.20 0.97 0.58 0.33 0.25 0.27 0.39 0.45 0.42 0.40 0.38 0.36 0.49 0.72 0.62 0.49 0.49 0.45 0.54 0.75 0.82 0.80 0.86 0.95 1.05 1.17 1.31 1.32 1.27 1.28 1.44 1.70 1.98 2.17 2.20 2.13 2.20 2.49 2.80 2.69 2.62 2.49 2.32 2.12
0.18 0.33 0.59 0.92 0.93 0.72 0.60 0.36 0.29 0.29 0.35 0.44 0.43 0.37 0.39 0.51 0.36 0.38 0.51 0.46 0.40 0.35 0.37 0.53 0.68 0.72 0.71 0.74 0.87 0.97 1.10 1.20 1.24 1.21 1.26 1.33 1.64 2.00 2.13 2.13 2.12 2.11 2.30 2.50 2.59 2.45 2.17 2.08 1.97
0.21 0.35 0.50 0.61 0.54 0.40 0.33 0.28 0.25 0.25 0.39 0.55 0.59 0.44 0.35 0.38 0.33 0.32 0.35 0.33 0.32 0.32 0.32 0.47 0.63 0.62 0.65 0.73 0.81 0.94 1.07 1.22 1.32 1.31 1.30 1.39 1.66 1.95 2.07 1.92 1.87 1.96 2.02 2.10 2.22 2.11 1.88 1.89 2.01
0.24 0.36 0.58 0.48 0.37 0.30 0.27 0.23 0.22 0.25 0.34 0.57 0.66 0.63 0.57 0.51 0.36 0.33 0.38 0.33 0.28 0.31 0.38 0.47 0.59 0.60 0.65 0.70 0.78 0.98 1.14 1.29 1.43 1.44 1.41 1.46 1.70 1.98 2.04 1.88 1.99 1.98 1.96 1.96 1.94 1.93 1.94 2.15 2.22
0.29 0.35 0.38 0.36 0.25 0.20 0.19 0.19 0.26 0.30 0.45 0.56 0.57 0.65 0.76 0.67 0.50 0.36 0.38 0.34 0.33 0.34 0.39 0.47 0.55 0.58 0.66 0.77 0.87 1.00 1.16 1.28 1.44 1.45 1.38 1.40 1.65 1.89 1.84 1.84 1.96 1.84 1.90 1.87 1.76 1.70 1.79 2.00 2.19
0.20 0.27 0.27 0.30 0.24 0.19 0.15 0.17 0.30 0.36 0.62 0.76 0.79 0.75 0.89 0.86 0.58 0.42 0.41 0.37 0.40 0.42 0.46 0.51 0.51 0.54 0.66 0.82 1.03 1.16 1.22 1.35 1.44 1.39 1.35 1.43 1.50 1.66 1.73 1.76 1.83 1.83 1.87 1.70 1.59 1.63 1.62 1.73 2.01
0.10 0.17 0.20 0.22 0.19 0.15 0.13 0.16 0.26 0.34 0.54 0.61 0.74 0.87 1.06 0.89 0.63 0.54 0.53 0.54 0.57 0.60 0.64 0.59 0.54 0.58 0.62 0.75 1.09 1.30 1.35 1.44 1.46 1.44 1.46 1.63 1.66 1.62 1.63 1.55 1.66 1.72 1.69 1.64 1.66 1.64 1.62 1.71 1.97
0.09 0.13 0.15 0.15 0.12 0.10 0.10 0.15 0.20 0.36 0.46 0.48 0.61 0.76 0.92 0.70 0.65 0.75 0.87 0.91 0.90 0.88 0.94 0.83 0.78 0.70 0.76 0.87 1.10 1.33 1.38 1.49 1.61 1.66 1.75 2.04 2.23 1.99 1.93 1.68 1.84 1.83 1.81 1.84 1.89 1.89 1.87 1.83 2.05
0.08 0.08 0.07 0.06 0.06 0.07 0.08 0.14 0.21 0.35 0.73 0.93 1.05 0.95 0.80 0.78 0.82 0.90 1.03 1.10 1.13 1.15 1.00 1.00 1.05 0.94 1.01 1.07 1.29 1.73 1.67 1.73 1.96 2.08 2.06 2.35 2.45 2.40 1.92 2.04 2.35 2.39 2.40 2.38 2.45 2.56 2.40 2.01 1.89
0.05 0.06 0.05 0.04 0.03 0.04 0.07 0.12 0.14 0.30 0.83 1.39 1.50 1.16 0.83 0.92 1.06 1.21 1.28 1.32 1.24 1.29 1.16 1.29 1.34 1.34 1.39 1.68 1.49 1.66 1.97 2.17 2.30 2.44 2.57 2.65 2.26 2.09 2.02 2.28 2.62 2.69 2.64 2.58 2.70 2.91 2.60 2.45 2.45
0.03 0.04 0.04 0.03 0.03 0.04 0.06 0.13 0.18 0.32 0.77 1.20 1.22 0.98 0.81 1.03 1.20 1.48 1.63 1.76 1.82 1.85 1.85 1.80 1.88 1.98 1.99 1.80 1.79 1.73 1.82 2.00 2.32 2.56 2.45 2.54 2.59 2.53 2.39 2.49 2.50 2.56 2.67 2.90 2.78 2.90 2.97 2.95 2.66
0.02 0.02 0.03 0.03 0.03 0.05 0.08 0.13 0.23 0.44 0.54 0.60 0.71 0.74 0.85 1.14 1.45 1.81 2.02 2.22 2.36 2.64 2.76 2.72 2.63 2.49 2.55 2.54 2.39 2.00 2.13 2.09 2.15 2.54 2.58 2.56 2.69 2.76 2.69 2.58 2.66 2.40 2.45 2.79 3.11 2.94 3.01 3.15 2.96
0.03 0.02 0.03 0.04 0.04 0.06 0.08 0.14 0.28 0.52 0.53 0.55 0.64 0.69 0.82 1.23 1.77 2.26 2.37 2.49 2.78 3.43 3.89 3.66 3.45 3.15 3.04 3.05 2.97 2.84 2.51 2.41 2.24 2.51 2.62 2.72 2.88 2.95 2.89 2.70 2.70 2.38 2.30 2.56 2.86 2.87 3.07 3.08 3.06
0.04 0.05 0.07 0.07 0.07 0.12 0.15 0.28 0.45 0.64 0.59 0.60 0.71 0.75 0.83 1.21 1.68 2.42 2.80 3.04 3.33 4.06 4.65 4.42 4.27 4.19 3.95 3.84 3.47 3.03 2.74 2.54 2.68 2.84 2.91 2.96 3.01 3.10 3.02 2.89 2.68 2.53 2.56 2.65 2.66 2.77 3.18 3.02 2.87
0.07 0.11 0.22 0.17 0.11 0.15 0.24 0.58 0.66 0.72 0.65 0.69 0.91 0.85 0.85 1.17 1.68 2.40 3.03 3.52 3.85 4.24 4.68 5.06 4.70 5.05 4.97 4.73 4.25 3.68 3.39 3.29 3.15 3.07 3.14 2.95 2.95 2.95 3.10 2.80 2.52 2.65 2.80 2.91 2.90 2.91 3.11 3.16 3.24
0.11 0.19 0.30 0.28 0.18 0.16 0.25 0.68 0.77 0.61 0.63 0.79 0.97 0.98 1.03 1.28 1.65 2.15 2.81 3.36 3.92 4.53 5.06 5.55 5.74 5.83 5.42 5.06 4.66 4.32 4.09 3.83 3.37 2.93 2.77 2.65 2.44 2.28 2.39 2.25 2.20 2.28 2.45 2.43 2.28 2.63 2.89 3.04 3.21
0.11 0.16 0.24 0.38 0.29 0.19 0.27 0.56 0.70 0.64 0.64 0.83 1.06 1.03 1.10 1.32 1.71 2.12 2.67 3.14 3.79 4.65 5.49 5.92 6.05 5.67 5.25 4.90 4.45 4.24 3.93 3.58 3.18 2.75 2.44 2.25 2.16 1.91 2.00 1.83 1.79 2.00 2.25 2.34 2.46 2.67 2.63 2.54 2.65
0.09 0.13 0.20 0.30 0.24 0.22 0.35 0.57 0.67 0.71 0.76 0.92 1.08 1.08 1.15 1.27 1.66 2.12 2.64 3.15 3.81 4.71 5.64 5.99 5.77 5.20 4.76 4.35 3.88 3.53 3.19 2.94 2.80 2.50 2.16 2.08 2.02 1.96 2.15 1.88 2.05 2.08 2.19 2.25 2.22 2.33 2.29 2.05 2.17
0.10 0.14 0.20 0.27 0.20 0.22 0.37 0.60 0.79 0.88 0.97 0.93 0.99 1.10 1.08 1.27 1.71 2.23 2.83 3.22 3.54 4.06 4.80 5.10 4.78 4.16 3.56 3.32 3.18 3.03 2.92 2.60 2.39 2.31 2.20 1.90 1.89 1.88 1.89 2.00 1.78 1.81 1.98 1.94 1.97 2.28 2.25 1.95 2.02
0.11 0.14 0.20 0.24 0.17 0.24 0.40 0.81 1.09 1.12 0.91 0.73 0.66 0.80 0.83 0.99 1.52 2.26 2.80 3.07 3.33 3.52 3.50 3.61 3.52 3.03 2.69 2.63 2.63 2.59 2.69 2.51 2.26 2.14 2.00 1.73 1.64 1.57 1.63 1.66 1.71 1.83 1.77 1.87 1.95 2.03 2.17 2.08 1.89
0.12 0.09 0.10 0.13 0.17 0.37 0.47 1.14 1.39 1.18 1.00 0.77 0.62 0.64 0.67 0.88 1.35 2.11 2.40 2.51 2.55 2.63 2.43 2.42 2.52 2.35 2.30 2.23 2.27 2.18 2.06 2.03 1.94 1.92 1.84 1.73 1.58 1.51 1.41 1.46 1.54 1.70 1.69 1.91 1.70 1.78 2.02 2.08 1.84
0.11 0.08 0.08 0.13 0.19 0.38 0.58 1.01 1.40 1.26 1.13 0.82 0.62 0.58 0.69 0.77 1.04 1.39 1.46 1.59 1.66 1.74 1.77 1.94 2.20 2.24 2.12 2.07 2.20 2.25 1.98 1.82 1.74 1.75 1.82 1.72 1.60 1.48 1.35 1.39 1.52 1.64 1.67 1.70 1.71 1.96 1.94 1.87 1.85
0.08 0.11 0.16 0.30 0.44 0.78 0.79 0.93 1.38 1.21 0.93 0.66 0.56 0.57 0.52 0.55 0.74 0.93 0.99 1.04 1.11 1.17 1.29 1.49 1.91 2.11 1.97 1.91 1.98 1.97 1.91 1.85 1.74 1.66 1.69 1.66 1.60 1.57 1.56 1.48 1.57 1.57 1.58 1.60 1.62 1.77 1.81 1.86 1.92
0.09 0.14 0.37 0.77 1.19 1.28 0.80 0.90 1.22 0.83 0.58 0.43 0.37 0.41 0.45 0.57 0.65 0.76 0.91 0.97 0.89 0.86 0.99 1.19 1.50 1.64 1.59 1.65 1.76 1.84 1.91 1.87 1.72 1.65 1.58 1.56 1.46 1.52 1.66 1.63 1.64 1.65 1.65 1.55 1.61 1.67 1.65 1.74 1.86
0.11 0.13 0.27 0.48 0.64 0.76 0.75 1.18 1.27 0.70 0.46 0.35 0.33 0.33 0.46 0.53 0.50 0.53 0.63 0.65 0.63 0.70 0.78 0.96 1.12 1.20 1.27 1.39 1.57 1.70 1.73 1.73 1.68 1.76 1.63 1.52 1.40 1.38 1.52 1.65 1.65 1.58 1.50 1.48 1.78 1.64 1.57 1.69 1.76
0.10 0.10 0.12 0.15 0.24 0.52 0.86 1.11 0.98 0.63 0.44 0.34 0.33 0.32 0.41 0.43 0.37 0.36 0.38 0.41 0.46 0.61 0.73 0.81 0.91 1.01 1.12 1.23 1.45 1.58 1.60 1.56 1.59 1.68 1.62 1.46 1.47 1.42 1.48 1.46 1.60 1.62 1.50 1.54 1.73 1.69 1.64 1.70 1.68
0.09 0.09 0.09 0.12 0.26 0.51 0.83 1.18 1.16 0.83 0.63 0.53 0.40 0.33 0.37 0.35 0.30 0.32 0.32 0.31 0.32 0.39 0.55 0.70 0.78 0.94 1.10 1.17 1.21 1.26 1.43 1.41 1.39 1.34 1.33 1.41 1.43 1.43 1.50 1.52 1.45 1.49 1.54 1.61 1.72 1.66 1.61 1.72 1.82
0.08 0.08 0.09 0.09 0.13 0.30 0.65 0.96 0.79 0.65 0.53 0.54 0.48 0.41 0.37 0.35 0.35 0.31 0.34 0.35 0.33 0.36 0.47 0.60 0.67 0.79 0.90 0.92 0.95 1.07 1.18 1.18 1.16 1.16 1.13 1.24 1.29 1.32 1.35 1.38 1.40 1.39 1.48 1.71 1.96 1.88 1.84 1.87 1.93
0.08 0.07 0.09 0.11 0.12 0.16 0.36 0.56 0.42 0.44 0.42 0.49 0.50 0.51 0.51 0.50 0.48 0.42 0.44 0.41 0.42 0.42 0.44 0.54 0.54 0.58 0.64 0.71 0.78 0.88 1.00 1.02 1.03 1.06 1.19 1.28 1.26 1.20 1.12 1.17 1.24 1.23 1.35 1.61 1.92 2.07 2.09 2.14 2.10